SL-8 R/B, 13260

Orbit data source: Space-Track

SL-8 R/B, 13260 is space debris in LEO originally from a launch on Sun, 06 Jun 1982 UTC launched from the Plesetsk Missile And Space Complex (PKMTR). Debris objects in space refer to the collection of defunct objects orbiting the Earth. Examples of debris include non-operational satellites, rocket bodies, and fragments generated from explosions, collisions, or faulty payload assembly.

Loading next visibility...
Identifier
13260, 1982-055B
Orbit
LEO
Country
Flag of CISCIS
Related business
Manufacturer
Omsk Av. Zav.
Mission
Spacecraft
Bus & Motor
S3, Unknown motor
Mass
1,434 kg wet, 1,434 kg dry
Launch date (UTC)
1982-06-06 (44 years ago)
Launch vehicle
Unknown
Launch site
Plesetsk Missile And Space Complex (PKMTR)
Object type
Payload
Rocket body
Debris
Shape & HBR
Unknown
Radar Cross Section
Large (>1 m²)

Expand to show TLE details & history
Last TLE update: 3 days ago

TLE from 3 days ago
0 SL-8 R/B
1 13260U 82055B   26171.13298042 -.00000007  00000-0  77426-4 0  9996
2 13260  65.8332  76.8469 0046062 270.1675 246.8171 13.74619738211335
Epoch: 2026-06-20T03:11Z
TLE epoch observation values (Epoch: 2026-06-20T03:11:29.508Z)
Latitude
21.35943°
Longitude
-69.43203°
Altitude
998.214 km
Speed
7.348 km/s
True Right ascension
16h 27m 10s
True Declination
21° 14' 49"
Sunlit
Object was in full shadow at epoch
Visualization orbit readout
Latitude
Unknown
Longitude
Unknown
Altitude
Unknown
Speed
Unknown
Apparent Right ascension
Unknown
Apparent Declination
Unknown
Sunlit
N/A
Visualization observer readout
Local Sidereal Time
03:41:45
Azimuth
Unknown
Elevation
Unknown
Doppler factor
Unknown
Orbital elements
Apogee altitude
1,015.45 km
Perigee altitude
947.649 km
Semi-major axis
7,359.686 km
Eccentricity
0.00461
Inclination
65.8332°
RAAN
76.8469°
Arg. of periapsis
270.1675°
True anomaly
246.33299°
Mean anomaly
246.8171°
Eccentric anomaly
246.57494°
Mean motion
3.43759 °/min
Orbital period
104.72 mins
BSTAR
0.000077426
Loading maneuver chart data...
Computing Atmospheric mass density...
Loading historical data...
Loading historical data...
Loading historical data...
Loading historical data...
Loading historical data...
Loading historical data...
Loading historical data...

Documentation

Showing up to 5 results
|